When you browse on this site, cookies collect data to enhance your experience and personalize the content and advertising you see.
Visit our Privacy Policy to learn more. By continuing to use the site, you agree to this use of cookies and data.
  • In United Kingdom
  • List of Countries
  • For 7 days
  • Water Temperature
  • Satellite Maps
  • Weather Map
  • Weather Widgets
  • user-avatar
    Login

    Hourly Weather Duabo

    Today, 20 July, Saturday

    Time Temperature Precipitation Wind Pressure Humidity
    00:00 +24°C° 0.3 mm 2 mps 742 mmHg 98%
    01:00 +24°C° 0.3 mm 2 mps 741 mmHg 97%
    02:00 +24°C° 0.3 mm 2 mps 741 mmHg 97%
    03:00 +24°C° 0.1 mm 2 mps 741 mmHg 97%
    04:00 +24°C° 0.1 mm 2 mps 741 mmHg 97%
    05:00 +24°C° 0.1 mm 2 mps 742 mmHg 97%
    06:00 +24°C° 0 mm 2 mps 742 mmHg 96%
    07:00 +25°C° 0 mm 2 mps 742 mmHg 94%
    08:00 +25°C° 0 mm 2 mps 743 mmHg 93%
    09:00 +26°C° 0.6 mm 2 mps 743 mmHg 89%
    10:00 +27°C° 0.6 mm 1 mps 743 mmHg 84%
    11:00 +29°C° 0.6 mm 1 mps 743 mmHg 79%
    12:00 +28°C° 1.5 mm 1 mps 742 mmHg 83%
    13:00 +27°C° 1.5 mm 1 mps 742 mmHg 87%
    14:00 +27°C° 1.5 mm 1 mps 741 mmHg 91%
    15:00 +26°C° 0.9 mm 1 mps 741 mmHg 92%
    16:00 +26°C° 0.9 mm 1 mps 741 mmHg 93%
    17:00 +25°C° 0.9 mm 1 mps 741 mmHg 95%
    18:00 +25°C° 0 mm 1 mps 742 mmHg 95%
    19:00 +24°C° 0 mm 1 mps 742 mmHg 96%
    20:00 +24°C° 0 mm 1 mps 743 mmHg 97%
    21:00 +24°C° 0 mm 1 mps 743 mmHg 97%
    22:00 +24°C° 0 mm 1 mps 743 mmHg 98%
    23:00 +23°C° 0 mm 1 mps 743 mmHg 98%

    Tomorrow, 21 July, Sunday

    Time Temperature Precipitation Wind Pressure Humidity
    00:00 +23°C° 0 mm 1 mps 742 mmHg 98%
    01:00 +23°C° 0 mm 1 mps 742 mmHg 99%
    02:00 +23°C° 0 mm 1 mps 741 mmHg 99%
    03:00 +23°C° 0.1 mm 1 mps 741 mmHg 98%
    04:00 +23°C° 0.1 mm 1 mps 741 mmHg 98%
    05:00 +24°C° 0.1 mm 1 mps 741 mmHg 98%
    06:00 +24°C° 0.1 mm 1 mps 742 mmHg 96%
    07:00 +24°C° 0.1 mm 1 mps 743 mmHg 95%
    08:00 +25°C° 0.1 mm 1 mps 743 mmHg 94%
    09:00 +26°C° 0.1 mm 1 mps 743 mmHg 91%
    10:00 +26°C° 0.1 mm 2 mps 743 mmHg 88%
    11:00 +27°C° 0.1 mm 2 mps 743 mmHg 85%
    12:00 +28°C° 0.4 mm 2 mps 742 mmHg 82%
    13:00 +28°C° 0.4 mm 2 mps 741 mmHg 78%
    14:00 +29°C° 0.4 mm 2 mps 741 mmHg 75%
    15:00 +28°C° 1.7 mm 2 mps 741 mmHg 81%
    16:00 +27°C° 1.7 mm 2 mps 741 mmHg 87%
    17:00 +26°C° 1.7 mm 2 mps 741 mmHg 92%
    18:00 +25°C° 0.3 mm 2 mps 741 mmHg 94%
    19:00 +25°C° 0.3 mm 2 mps 742 mmHg 95%
    20:00 +24°C° 0.3 mm 2 mps 742 mmHg 97%
    21:00 +24°C° 0 mm 1 mps 742 mmHg 97%
    22:00 +24°C° 0 mm 1 mps 742 mmHg 97%
    23:00 +23°C° 0 mm 1 mps 742 mmHg 98%

    Day after tomorrow, 22 July, Monday

    Time Temperature Precipitation Wind Pressure Humidity
    00:00 +23°C° 0 mm 1 mps 742 mmHg 98%
    01:00 +23°C° 0 mm 1 mps 742 mmHg 98%
    02:00 +23°C° 0 mm 1 mps 741 mmHg 98%
    03:00 +23°C° 0 mm 1 mps 741 mmHg 98%
    04:00 +23°C° 0 mm 1 mps 741 mmHg 98%
    05:00 +23°C° 0 mm 1 mps 742 mmHg 97%
    06:00 +24°C° 0 mm 1 mps 742 mmHg 95%
    07:00 +25°C° 0 mm 1 mps 742 mmHg 93%
    08:00 +25°C° 0 mm 1 mps 743 mmHg 90%
    09:00 +26°C° 0.9 mm 1 mps 743 mmHg 89%
    10:00 +26°C° 0.9 mm 1 mps 742 mmHg 88%
    11:00 +27°C° 0.9 mm 1 mps 742 mmHg 87%
    12:00 +27°C° 1.9 mm 1 mps 741 mmHg 87%
    13:00 +27°C° 1.9 mm 2 mps 741 mmHg 87%
    14:00 +27°C° 1.9 mm 2 mps 740 mmHg 86%
    15:00 +27°C° 1.5 mm 2 mps 740 mmHg 89%
    16:00 +26°C° 1.5 mm 2 mps 740 mmHg 91%
    17:00 +25°C° 1.5 mm 2 mps 740 mmHg 94%
    18:00 +25°C° 0.2 mm 2 mps 741 mmHg 95%
    19:00 +24°C° 0.2 mm 2 mps 741 mmHg 96%
    20:00 +24°C° 0.2 mm 2 mps 742 mmHg 97%
    21:00 +24°C° 0.1 mm 2 mps 742 mmHg 97%
    22:00 +24°C° 0.1 mm 1 mps 742 mmHg 97%
    23:00 +23°C° 0.1 mm 1 mps 743 mmHg 97%

    23 July, Tuesday

    Time Temperature Precipitation Wind Pressure Humidity
    00:00 +23°C° 0.1 mm 1 mps 742 mmHg 97%
    01:00 +23°C° 0.1 mm 2 mps 741 mmHg 97%
    02:00 +23°C° 0.1 mm 2 mps 741 mmHg 97%
    03:00 +23°C° 0.1 mm 2 mps 741 mmHg 97%
    04:00 +23°C° 0.1 mm 1 mps 741 mmHg 97%
    05:00 +23°C° 0.1 mm 1 mps 741 mmHg 97%
    06:00 +24°C° 0 mm 2 mps 742 mmHg 95%
    07:00 +24°C° 0 mm 2 mps 742 mmHg 94%
    08:00 +24°C° 0 mm 2 mps 742 mmHg 93%
    09:00 +25°C° 0.1 mm 2 mps 742 mmHg 90%
    10:00 +25°C° 0.1 mm 2 mps 743 mmHg 87%
    11:00 +26°C° 0.1 mm 2 mps 743 mmHg 85%
    12:00 +26°C° 0.2 mm 3 mps 742 mmHg 82%
    13:00 +27°C° 0.2 mm 3 mps 741 mmHg 79%
    14:00 +27°C° 0.2 mm 3 mps 741 mmHg 77%
    15:00 +27°C° 0.1 mm 3 mps 741 mmHg 78%
    16:00 +26°C° 0.1 mm 3 mps 740 mmHg 79%
    17:00 +26°C° 0.1 mm 2 mps 740 mmHg 80%
    18:00 +25°C° 0 mm 2 mps 741 mmHg 84%
    19:00 +24°C° 0 mm 1 mps 741 mmHg 88%
    20:00 +23°C° 0 mm 1 mps 742 mmHg 92%
    21:00 +23°C° 0 mm 1 mps 742 mmHg 94%
    22:00 +22°C° 0 mm 1 mps 742 mmHg 95%
    23:00 +22°C° 0 mm 1 mps 742 mmHg 97%

    24 July, Wednesday

    Time Temperature Precipitation Wind Pressure Humidity
    00:00 +20°C° 0 mm 0 mps 742 mmHg 97%
    01:00 +20°C° 0 mm 0 mps 741 mmHg 97%
    02:00 +20°C° 0 mm 0 mps 741 mmHg 97%
    03:00 +20°C° 0 mm 0 mps 741 mmHg 97%
    04:00 +20°C° 0 mm 0 mps 741 mmHg 97%
    05:00 +20°C° 0 mm 0 mps 741 mmHg 96%
    06:00 +24°C° 0 mm 1 mps 742 mmHg 92%
    07:00 +25°C° 0 mm 1 mps 742 mmHg 87%
    08:00 +26°C° 0 mm 1 mps 743 mmHg 83%
    09:00 +26°C° 0.1 mm 1 mps 743 mmHg 80%
    10:00 +27°C° 0.1 mm 1 mps 743 mmHg 78%
    11:00 +27°C° 0.1 mm 1 mps 742 mmHg 76%
    12:00 +28°C° 0.1 mm 1 mps 742 mmHg 73%
    13:00 +29°C° 0.1 mm 2 mps 741 mmHg 69%
    14:00 +29°C° 0.1 mm 2 mps 741 mmHg 66%
    15:00 +28°C° 0.1 mm 2 mps 740 mmHg 70%
    16:00 +27°C° 0.1 mm 2 mps 740 mmHg 74%
    17:00 +26°C° 0.1 mm 2 mps 740 mmHg 78%
    18:00 +25°C° 0 mm 2 mps 741 mmHg 81%
    19:00 +24°C° 0 mm 1 mps 741 mmHg 85%
    20:00 +23°C° 0 mm 1 mps 742 mmHg 89%
    21:00 +22°C° 0 mm 1 mps 742 mmHg 91%
    22:00 +22°C° 0 mm 1 mps 742 mmHg 92%
    23:00 +21°C° 0 mm 1 mps 742 mmHg 93%

    25 July, Thursday

    Time Temperature Precipitation Wind Pressure Humidity
    00:00 +21°C° 0 mm 1 mps 742 mmHg 94%
    01:00 +19°C° 0 mm 0 mps 741 mmHg 94%
    02:00 +19°C° 0 mm 0 mps 741 mmHg 95%
    03:00 +19°C° 0 mm 0 mps 741 mmHg 95%
    04:00 +19°C° 0 mm 0 mps 742 mmHg 96%
    05:00 +18°C° 0 mm 0 mps 742 mmHg 96%
    06:00 +20°C° 0 mm 0 mps 742 mmHg 89%
    07:00 +22°C° 0 mm 0 mps 743 mmHg 81%
    08:00 +26°C° 0 mm 1 mps 743 mmHg 74%
    09:00 +26°C° 0 mm 1 mps 743 mmHg 72%
    10:00 +27°C° 0 mm 1 mps 743 mmHg 70%
    11:00 +27°C° 0 mm 1 mps 743 mmHg 68%
    12:00 +27°C° 0 mm 1 mps 742 mmHg 69%
    13:00 +27°C° 0 mm 1 mps 742 mmHg 69%
    14:00 +27°C° 0 mm 1 mps 741 mmHg 70%
    15:00 +27°C° 0.1 mm 1 mps 741 mmHg 74%
    16:00 +26°C° 0.1 mm 2 mps 740 mmHg 79%
    17:00 +25°C° 0.1 mm 2 mps 740 mmHg 83%
    18:00 +24°C° 0 mm 1 mps 741 mmHg 86%
    19:00 +23°C° 0 mm 1 mps 741 mmHg 89%
    20:00 +23°C° 0 mm 1 mps 742 mmHg 92%
    21:00 +22°C° 0 mm 1 mps 742 mmHg 93%
    22:00 +22°C° 0 mm 1 mps 742 mmHg 94%
    23:00 +22°C° 0 mm 1 mps 742 mmHg 95%
    Show more